Location: Squamish
(49.7000°N, 123.1500°W)
Time: 12:57:42
(UTC-07:00)

Daily predictions for brighter satellites

Satellite Brightness Start Highest point End
(mag) Time Altitude Azimuth Time Altitude Azimuth Time Altitude Azimuth
Cosmos 2278 3.9 20:33:26 10° S 20:38:52 49° ESE 20:44:21 10° NE
H-2A R/B 2.8 20:36:49 10° SSE 20:40:43 87° ENE 20:44:41 10° NNW
Cosmos 1315 Rocket 4.0 20:38:07 10° SSW 20:42:02 49° WNW 20:46:01 10° N
Meteor 2-16 Rocket 4.4 20:36:24 10° S 20:42:28 76° E 20:48:33 10° NNE
EO 1 Delta rocket 3.9 20:40:27 10° NNE 20:45:03 61° E 20:50:06 10° S
CZ-4 DEB 3.3 20:45:00 10° SE 20:47:58 40° ENE 20:50:58 10° N
Cosmos 1821 Rocket 4.1 20:44:41 10° SSW 20:50:48 80° W 20:56:56 10° N
Cosmos 2369 3.8 20:47:04 10° S 20:52:35 55° ESE 20:58:10 10° NE
Cosmos 1605 Rocket 4.0 20:47:33 10° S 20:53:49 68° E 21:00:03 10° NNE
USA 215 3.8 20:48:50 10° E 20:55:11 55° NNE 21:01:31 10° WNW
Cosmos 1980 Rocket 3.6 20:53:14 10° SE 20:56:51 17° E 21:00:29 10° ENE
YAOGAN 11 4.2 20:53:16 10° SSE 20:57:43 63° ENE 21:02:08 10° N
CZ-2D R/B 4.1 20:55:50 10° S 20:59:37 52° W 21:03:28 10° NNW
Cosmos 1461 4.2 20:56:14 10° NW 20:59:59 35° WSW 21:03:36 10° S
Cosmos 1626 Rocket 3.5 20:59:06 10° N 21:03:33 87° E 21:07:56 10° S
SJ-11-01 4.3 20:59:04 10° SSE 21:03:44 69° ENE 21:08:24 10° N
Meteor 1-12 Rocket 4.3 20:58:34 10° S 21:04:14 65° E 21:10:03 10° NNE
NOSS 7 (D) 4.4 21:00:57 10° SSW 21:04:16 58° SE 21:07:42 10° NE
H-2A R/B 2.7 21:00:47 11° SE 21:04:22 35° ENE 21:08:10 10° N
Cosmos 1939 Rocket 3.1 21:03:08 10° SSE 21:07:11 55° ENE 21:11:16 10° N
Cosmos 2208 Rocket 4.1 21:03:15 10° SSW 21:08:37 87° WNW 21:14:05 10° NNE
Terra 4.0 21:08:17 10° ENE 21:09:43 11° NE 21:11:09 10° NE
Cosmos 2298 Rocket 4.1 21:05:59 10° NNW 21:11:20 87° ENE 21:16:40 10° SSE
Cosmos 1455 Rocket 3.6 21:08:04 10° SSW 21:12:22 63° WNW 21:16:44 10° N
Cosmos 1602 Rocket 3.7 21:07:58 10° NNW 21:12:28 78° W 21:16:53 10° S
Cosmos 1346 Rocket 4.5 21:09:12 10° NNW 21:12:48 35° W 21:16:25 10° SSW
ASTEX 1 4.4 21:11:24 10° NNE 21:15:39 27° E 21:18:51 15° SE
Cosmos 1500 3.4 21:14:11 10° S 21:17:48 49° E 21:21:29 10° NNE
Cosmos 2263 Rocket 3.8 21:15:18 10° N 21:19:28 21° NE 21:23:33 10° E
ATLAS CENTAUR R/B 3.9 21:15:11 10° W 21:19:31 29° NNW 21:23:42 10° NNE
Cosmos 2227 Rocket 3.4 21:14:53 10° NW 21:20:10 41° WSW 21:25:24 10° S
Cosmos 1937 Rocket 3.5 21:16:50 10° NNW 21:22:08 74° ENE 21:26:44 14° SSE
Envisat 3.0 21:17:55 10° SSE 21:22:59 74° ENE 21:28:04 10° N
Cosmos 2084 3.8 21:20:41 10° NW 21:24:37 55° SW 21:28:01 14° SSE
Cosmos 1656 3.7 21:20:10 10° S 21:25:40 57° ESE 21:31:06 10° NE
Cosmos 1340 3.1 21:22:20 10° N 21:25:59 42° ENE 21:28:13 20° SE
Iridium 4 Rocket 3.6 21:21:44 10° N 21:27:00 78° W 21:31:44 10° S
Cosmos 2322 Rocket 4.0 21:29:50 12° E 21:29:50 12° E 21:31:23 10° ENE
ALOS 4.2 21:25:48 10° SSW 21:29:53 29° W 21:33:59 10° NNW
RESURS DK-1 2.3 21:26:09 10° NNW 21:30:20 88° ENE 21:33:15 19° SSE
USA 186 4.2 21:29:04 10° SSW 21:31:34 21° W 21:33:57 10° NW
H-2A R/B 3.5 21:29:30 15° E 21:31:55 20° ENE 21:35:30 10° NNE
Cosmos 2297 Rocket 3.3 21:30:20 10° NW 21:35:38 42° WSW 21:40:55 10° S
Cosmos 990 Rocket 4.0 21:30:51 10° NNW 21:36:09 73° ENE 21:39:55 19° SSE
Cosmos 1459 Rocket 4.0 21:30:26 10° S 21:36:21 60° E 21:42:22 10° NNE
Cosmos 1515 4.4 21:32:42 10° NNW 21:36:28 54° W 21:40:13 10° S
Cosmos 2150 Rocket 4.3 21:32:38 10° NNW 21:37:45 66° WSW 21:42:32 12° S
YAOGAN 6 3.1 21:35:57 24° SE 21:37:46 45° ENE 21:41:21 10° N
Cosmos 2227 4.3 21:35:04 10° NNW 21:40:51 68° ENE 21:44:38 22° SE
Cosmos 2058 Rocket 4.1 21:40:44 24° ESE 21:42:10 29° E 21:46:03 10° NNE
BREEZE-M DEB (TANK) 3.9 21:39:31 10° W 21:43:00 66° SSW 21:49:57 19° ESE
NOSS 7 (H) 4.4 21:40:43 10° SW 21:44:01 86° NW 21:47:44 10° NE
Cosmos 2098 Rocket 4.5 21:39:06 16° SSE 21:44:01 39° E 21:49:16 10° NNE
SPOT 1/Viking Rocket 3.8 21:47:39 24° SE 21:50:40 53° ENE 21:55:44 10° N
Cosmos 1606 Rocket 3.8 21:48:12 21° SSE 21:50:51 50° E 21:55:10 10° NNE
Tiangong 1 2.8 21:49:37 10° WSW 21:51:51 20° SSW 21:51:51 20° SSW
Cosmos 1743 2.6 21:50:14 17° S 21:53:10 70° E 21:57:06 10° NNE
ERS-1 Rocket 3.8 21:48:53 10° S 21:53:44 49° W 21:58:37 10° NNW
MetOp-A 4.1 21:56:54 20° SSE 22:00:41 89° WSW 22:06:05 10° NNW
Lacrosse 5 2.7 21:59:15 10° WNW 22:04:00 42° SW 22:06:31 24° S
Cosmos 1125 Rocket 3.7 22:00:29 10° NNW 22:05:38 57° ENE 22:07:51 32° SE
Cosmos 1763 Rocket 3.5 22:03:14 19° S 22:06:37 51° ESE 22:11:32 10° NNE
Cosmos 1802 Rocket 4.0 22:00:22 10° S 22:06:46 84° E 22:13:16 10° N
SL-08 R/B 4.5 22:05:13 18° S 22:09:56 65° E 22:16:02 10° NNE
SPOT 5 3.2 22:09:28 20° S 22:12:55 64° WSW 22:17:42 10° NNW
PSLV R/B 3.2 22:13:13 57° SSW 22:13:40 71° WSW 22:16:45 10° NNW
Cosmos 1842 3.1 22:10:05 10° N 22:14:01 83° E 22:15:08 46° SSE
Cosmos 1726 Rocket 3.4 22:12:31 30° S 22:14:39 74° E 22:19:04 10° NNE
Cosmos 1697 Rocket 2.7 22:11:48 10° SSW 22:17:28 82° WNW 22:23:09 10° NNE
SL-08 RB Rocket 3.7 22:17:46 40° SE 22:19:21 69° ENE 22:24:00 10° N
Cosmos 468 Rocket 4.3 22:15:53 10° SSW 22:20:58 66° WNW 22:26:07 10° NNE
Cosmos 2016 Rocket 3.9 22:16:20 12° S 22:22:03 90° W 22:28:19 10° N
CZ-4 SHROUD 3.5 22:24:00 56° SW 22:24:15 58° W 22:27:18 10° NNW
SL-16 R/B 3.0 22:24:36 31° E 22:24:36 31° E 22:29:16 10° NE
Cosmos 1707 4.2 22:23:02 10° NNE 22:26:01 24° ENE 22:26:01 24° ENE
NOAA 11 4.2 22:24:16 32° SSE 22:26:56 87° WSW 22:32:27 10° NNW
Cosmos 841 Rocket 3.4 22:25:13 25° S 22:28:19 69° ESE 22:33:31 10° NNE
Cosmos 1814 Rocket 4.4 22:25:11 10° SSW 22:30:29 66° WNW 22:35:47 10° NNE
Landsat 7 3.9 22:30:02 47° SE 22:31:12 64° ENE 22:35:57 10° N
Cosmos 1953 Rocket 4.5 22:29:19 10° NNW 22:33:34 46° W 22:35:52 24° SSW
ARGOS 3.2 22:35:14 34° S 22:37:38 73° WSW 22:43:03 10° NNW
USA 215 3.2 22:35:05 36° SE 22:38:02 81° SW 22:44:37 10° WNW
Cosmos 1980 Rocket 2.2 22:34:23 10° SSW 22:40:05 86° WNW 22:45:51 10° NNE
H-2A R/B 3.8 22:37:56 15° SW 22:40:29 26° W 22:43:59 10° NW
CZ-4 R/B 3.8 22:36:25 10° NNE 22:41:05 57° ESE 22:41:29 55° ESE
Cosmos 2360 Rocket 4.1 22:43:12 15° ENE 22:43:12 15° ENE 22:44:50 10° ENE
Cosmos 1666 2.8 22:41:50 56° SW 22:42:28 69° WNW 22:46:16 10° N
Terra 1.8 22:45:51 56° ESE 22:46:32 64° ENE 22:51:17 10° N
Meteor 2-5 Rocket 3.9 22:41:23 10° N 22:47:18 61° ENE 22:48:45 47° SE
Cosmos 540 Rocket 4.0 22:48:18 40° E 22:48:18 40° E 22:52:34 10° NE
Tsikada Rocket 4.3 22:43:29 10° NNW 22:49:53 68° W 22:53:10 30° SSW
Cosmos 1864 Rocket 4.4 22:46:24 27° SSW 22:49:56 84° W 22:56:07 10° N
IGS 5A 3.6 22:50:23 60° ENE 22:50:23 60° ENE 22:54:27 10° N
Meteor 1-15 Rocket 4.3 22:49:46 32° SSW 22:52:43 88° W 22:58:37 10° NNE
GP-B 3.4 22:49:09 10° N 22:53:13 51° ENE 22:53:13 51° ENE
BREEZE-M DEB (TANK) 3.3 22:45:21 10° WSW 22:53:35 48° S 22:53:35 48° S
ASTEX 1 4.4 22:50:05 10° N 22:54:51 44° WNW 22:58:22 17° SW
Cosmos 372 Rocket 3.8 22:49:45 10° NNW 22:54:54 87° ENE 22:55:47 62° SSE
Cosmos 2228 3.0 22:55:33 66° SW 22:56:03 78° WNW 23:00:21 10° N
Okean 3 Rocket 4.2 22:56:24 10° N 23:00:18 43° ENE 23:00:18 43° ENE
Cosmos 2263 Rocket 2.0 22:58:39 10° NNW 23:04:16 84° ENE 23:05:14 62° SE
Cosmos 1441 Rocket 4.4 23:01:52 10° N 23:04:48 36° NE 23:04:48 36° NE
Spot 4 3.7 23:08:05 73° E 23:08:19 75° ENE 23:13:07 10° NNW
Cosmos 2346 Rocket 4.4 23:03:25 10° N 23:09:42 85° W 23:11:24 51° S
Meteor 1-24 Rocket 4.0 23:04:14 10° N 23:10:13 57° ENE 23:11:08 51° ESE
H-2A R/B 2.0 23:10:08 58° SSW 23:10:54 68° WSW 23:15:51 10° NNW
Cosmos 2322 Rocket 2.0 23:11:36 65° SSE 23:12:15 73° ESE 23:17:53 10° NNE
Cosmos 405 Rocket 3.4 23:08:44 10° NNW 23:12:00 49° WNW 23:12:00 49° WNW
CZ-4C R/B 3.9 23:14:18 59° WSW 23:14:29 60° WSW 23:18:52 10° NNW
Genesis I 3.9 23:13:52 10° NW 23:17:06 53° N 23:17:06 53° N
CZ-4B R/B 3.9 23:15:44 10° N 23:20:23 54° WNW 23:21:54 38° WSW
GEOS 3 Rocket 3.4 23:22:00 10° NE 23:27:04 79° ESE 23:27:04 79° ESE
Cosmos 921 Rocket 4.4 23:28:23 10° N 23:31:52 30° NE 23:31:52 30° NE
COSMOS 2428 4.5 23:37:03 18° ENE 23:37:03 18° ENE 23:39:12 10° NE
Cosmos 1072 Rocket 4.3 23:37:56 69° SSE 23:38:36 78° E 23:44:49 10° NNE
Cosmos 783 Rocket 4.4 23:38:35 78° WSW 23:38:51 81° WNW 23:44:10 10° NNE
Cosmos 2278 Rocket 3.5 23:44:55 10° NNW 23:49:54 30° NE 23:51:12 28° ENE
Cosmos 1076 Rocket 4.4 23:47:12 10° N 23:50:13 44° N 23:50:13 44° N
